Weather in Positano

Italy     40°37′41″N   14°29′22″E
temp.,
°C
wind,
m/s
gust,
m/s
humid.,
%
clouds,
%
prec.,
mm/h
press.,
hPa
HPBL,
m
24 may, tue
tue2423:00+20sse11585 0.0 101243
02:00+19s00644 0.0 101112
05:00+18sse00630 0.0 101111
08:00+21sw114748 0.0 1011156
11:00+26ssw223182 0.0 1011559
14:00+28ssw33275 0.0 1011805
17:00+27sw23280 0.0 1010653
20:00+24ssw12330 0.0 1011136
25 may, wed
wed2523:00+23nnw00363 0.0 101211
02:00+22wnw113619 0.0 101216
05:00+20ne113813 0.0 101211
08:00+25ne112882 0.0 101279
11:00+30w111994 0.0 1014765
14:00+32s2318100 0.0 10131280
17:00+30ssw232087 0.0 1014825
20:00+28s1226100 0.0 101451
26 may, thu
thu2623:00+26nw1130100 0.0 101611
02:00+23ne1142100 0.0 101716
05:00+22ne113656 0.0 101712
08:00+25e222995 0.0 101764
11:00+29wsw112386 0.0 1019615
14:00+32sw222194 0.0 10181242
17:00+32ssw222089 0.0 10171164
20:00+28w112785 0.0 101786
27 may, fri
fri2723:00+26ene1130100 0.0 101814
02:00+25ne1135100 0.0 101713
05:00+25nne1142100 0.0 101616
08:00+26ssw2343100 0.0 1017180
11:00+30ssw1134100 0.0 1016691
14:00+27wsw3342100 0.0 1015393
17:00+26w2238100 1.5 1015518
20:00+25nne225452 2.2 101350
28 may, sat
sat2823:00+24ese225596 0.0 101327
02:00+23ese2252100 0.3 101323
05:00+22ene115070 0.0 101021
08:00+22se2355100 0.3 1011216
11:00+25s1241100 0.0 1011827
14:00+27ssw3636100 0.0 10101270
17:00+26ssw35385 0.1 10081105
20:00+21wsw446894 0.1 1009453